Погода в Архангельском

Россия / Удмуртская Республика     57°47′22″N   52°40′52″E
темп.,
°C
ветер,
м/с
пор.,
м/с
влажн.,
%
обл.,
%
осадки,
мм/ч
давл.,
гПа
погр.,
м
14 апреля, ср
ср1401:00+6юз389697 0.0 1031132
04:00+4юз369976 0.0 103194
07:00+5юз3598100 0.0 1031163
10:00+11юз357745 0.0 1030260
13:00+16юз465434 0.0 1028774
16:00+17юз465549 0.0 10271032
19:00+13ююз33765 0.0 102532
22:00+10ююз37858 0.0 1025109
15 апреля, чт
чт1501:00+8ююз389050 0.0 1024129
04:00+7ююз37945 0.0 1023122
07:00+8ююз37935 0.0 1022175
10:00+13юз47740 0.0 1020536
13:00+16юз566374 0.0 10191303
16:00+14юз3773100 0.1 1018326
19:00+12з3584100 0.3 1018104
22:00+7ссв71191100 2.5 1021579
16 апреля, пт
пт1601:00+4св6128195 1.8 1023679
04:00+3св5117998 1.8 1025747
07:00+3св6116661 0.0 1026780
10:00+5св68500 0.0 1027986
13:00+7св56381 0.0 10271255
16:00+8св45355 0.0 10271428
19:00+6ссв35495 0.0 1027105
22:00+3ссв22594 0.0 102818
17 апреля, сб
сб1701:00+1с22655 0.0 102830
04:000сз33662 0.0 102852
07:00+2сз38641 0.0 1027263
10:00+6ссз576119 0.0 10271045
13:00+7с565098 0.1 10271706
16:00+8ссз574574 0.1 10261703
19:00+6ссз48536 0.0 1026278
22:00+2сз3106815 0.0 1027234
18 апреля, вс
вс1801:00+2ссз4117312 0.0 1028424
04:000сз410845 0.0 1029362
07:00+1ссз510805 0.0 1030814
10:00+4ссз586098 0.0 10291327
13:00+4ссз5861100 0.0 10301425
16:00+4с5859100 0.1 10311546
19:00+3с376549 0.0 1032309
22:000с238036 0.0 103362